Showing default

QIANFAN-2, 60380

Orbit data source: Space-Track

QIANFAN-2, 60380 is a Chinese payload satellite in LEO that was launched on Tue, 06 Aug 2024 UTC via a CHANG ZHENG 6A launch vehicle from the Taiyaun Space Center, China (TSC). Payload-class satellites include a variety of spacecraft equipped with specific instruments for various scientific and technological missions. These include communications satellites like Starlink; space stations such as the ISS; scientific satellites like the Hubble; Earth observation satellites from companies like Planet Labs, Umbra, and HawkEye 360; GPS; miniature CubeSats for education and research; and military/defense satellites.

Loading next visibility...
Identifier
60380, 2024-140B
Orbit
LEO
Country
Flag of CNCN / PRC
Related business
Manufacturer
SECM
Mission
Operational Commercial Communications
Bus & Motor
QIANFAN, Unknown motor
Mass
267 kg wet, ~267 kg dry
Launch date (UTC)
2024-08-06 (2 years ago)
Launch vehicle
CHANG ZHENG 6A
Launch site
Taiyaun Space Center, China (TSC)
Object type
Payload
Rocket body
Debris
Shape & HBR
Box + 1 Pan, 5.0 m
Radar Cross Section
13.200 m², Large (>1 m²)

Expand to show TLE details & history
Last TLE update: 7 hours ago

TLE from 7 hours ago
0 QIANFAN-2
1 60380U 24140B   26118.81299726  .00000054  00000-0  64399-4 0  9994
2 60380  88.9672 284.8825 0013990 145.0601 215.1471 13.51003223 85919
Epoch: 2026-04-28T19:30Z
TLE epoch observation values (Epoch: 2026-04-28T19:30:42.963Z)
Latitude
-0.00002°
Longitude
135.42056°
Altitude
1,080.048 km
Speed
7.308 km/s
True Right ascension
18h 59m 31s
True Declination
0° 00' 00"
Sunlit
Object was in daylight at epoch
Visualization orbit readout
Latitude
Unknown
Longitude
Unknown
Altitude
Unknown
Speed
Unknown
Apparent Right ascension
Unknown
Apparent Declination
Unknown
Sunlit
N/A
Visualization observer readout
Local Sidereal Time
10:08:59
Azimuth
Unknown
Elevation
Unknown
Doppler factor
Unknown
Orbital elements
Apogee altitude
1,076.035 km
Perigee altitude
1,055.207 km
Semi-major axis
7,443.758 km
Eccentricity
0.0014
Inclination
88.9672°
RAAN
284.8825°
Arg. of periapsis
145.0601°
True anomaly
215.05494°
Mean anomaly
215.1471°
Eccentric anomaly
215.10101°
Mean motion
3.37952 °/min
Orbital period
106.52 mins
BSTAR
0.000064399
Loading maneuver chart data...
Computing Atmospheric mass density...

Documentation

Showing up to 5 results
|